Location: Newark
(51.3318°N, 0.0053°E)
Time: 02:43:00
(UTC+00:00)

Envisat - Pass Details

Date: 27 January 2022
Orbit: 764 x 765 km, 98.2° (Epoch: 28 May)

Event Time Altitude Azimuth Distance (km) Brightness Sun altitude
Rises 05:19:49 0° 13° (NNE) 3,244 6.4 -22.5°
Reaches altitude 10° 05:22:08 10° 11° (NNE) 2,313 5.6 -22.1°
Maximum altitude 05:27:12 74° 288° (WNW) 801 2.8 -21.3°
Drops below altitude 10° 05:32:15 10° 204° (SSW) 2,297 5.3 -20.6°
Sets 05:34:33 0° 203° (SSW) 3,219 6.1 -20.2°
